SL-16 DEB, 24866

Orbit data source: Space-Track

SL-16 DEB, 24866 is space debris in LEO originally from a launch on Wed, 04 Sep 1996 UTC launched from the Tyuratam Missile And Space Complex (TTMTR). Debris objects in space refer to the collection of defunct objects orbiting the Earth. Examples of debris include non-operational satellites, rocket bodies, and fragments generated from explosions, collisions, or faulty payload assembly.

Loading next visibility...
Identifier
24866, 1996-051H
Orbit
LEO
Country
Flag of CISCIS
Related business
Manufacturer
Unknown
Mission
Spacecraft
Bus & Motor
Unknown
Mass
Unknown
Launch date (UTC)
1996-09-04 (29 years ago)
Launch vehicle
Unknown
Launch site
Tyuratam Missile And Space Complex (TTMTR)
Object type
Payload
Rocket body
Debris
Shape & HBR
Unknown shape, 0.2 m
Radar Cross Section
Small (<0.1 m²)

Expand to show TLE details & history
Last TLE update: 13 hours ago

TLE from 13 hours ago
0 SL-16 DEB
1 24866U 96051H   25309.16106390  .00000381  00000-0  23386-3 0  9999
2 24866  71.1229  93.2131 0063890 260.2498  99.1404 14.10882228500958
Epoch: 2025-11-05T03:51Z
TLE epoch observation values (Epoch: 2025-11-05T03:51:55.920Z)
Latitude
-0.00004°
Longitude
-9.40762°
Altitude
866.389 km
Speed
7.416 km/s
True Right ascension
06h 12m 51s
True Declination
0° 00' 00"
Sunlit
Object was in full shadow at epoch
Visualization orbit readout
Latitude
Unknown
Longitude
Unknown
Altitude
Unknown
Speed
Unknown
Apparent Right ascension
Unknown
Apparent Declination
Unknown
Sunlit
N/A
Visualization observer readout
Local Sidereal Time
12:48:38
Azimuth
Unknown
Elevation
Unknown
Doppler factor
Unknown
Orbital elements
Apogee altitude
900.479 km
Perigee altitude
808.063 km
Semi-major axis
7,232.408 km
Eccentricity
0.00639
Inclination
71.1229°
RAAN
93.2131°
Arg. of periapsis
260.2498°
True anomaly
99.86229°
Mean anomaly
99.1404°
Eccentric anomaly
99.50144°
Mean motion
3.52873 °/min
Orbital period
102.02 mins
BSTAR
0.00023386
Loading maneuver chart data...
Computing Atmospheric mass density...
Loading historical data...
Loading historical data...
Loading historical data...
Loading historical data...
Loading historical data...
Loading historical data...
Loading historical data...

Documentation

Showing up to 5 results
|